

    C/2008 Q1 (Maticic)
Epoch 2009 Jan. 9.0 TT = JDT 2454840.5  
T 2008 Dec. 30.11477 TT                                 Nakano
q   2.9592415            (2000.0)            P               Q
z  +0.0016557      Peri.  104.47634     -0.17164902     -0.97487259
 +/-0.0000107      Node     9.30905     -0.79517402     +0.05201759
e   0.9951004      Incl.  118.62680     +0.58157966     -0.21660470
From 549 observations 2008 Aug. 18-Nov. 20, mean residual 0".46.
   (1/a)org.= +0.001731, (1/a)fut.= +0.001795 (+/-0.000011), Q= 6.


NAKANO
         **** Don't distribute anyone except personal use only ****
                (C) Copyright 2008 OAA/ComputingSection
write mail from CFAD0::NAKANO on 2008-12-18 03:31:25(JST).
 

    C/2008 Q1 (Maticic)

Epoch 2009 Jan. 9.0 TT = JDT 2454840.5  

T 2008 Dec. 30.12453 TT                                 Nakano

q   2.9591907            (2000.0)            P               Q

z  +0.0016747      Peri.  104.47868     -0.17169313     -0.97486585

 +/-0.0000175      Node     9.30858     -0.79516993     +0.05205729

e   0.9950444      Incl.  118.62674     +0.58157222     -0.21662551

From 514 observations 2008 Aug. 18-Nov. 1, mean residual 0".43.

   (1/a)org.= +0.001750, (1/a)fut.= +0.001814 (+/-0.000017), Q= 5.
                   

NAKANO

         **** Don't distribute anyone except personal use only ****

                (C) Copyright 2008 OAA/ComputingSection

write mail from CFAD0::NAKANO on 2008-11-05 05:02:23(JST).

 



    C/2008 Q1 (Maticic)

Epoch 2009 Jan. 9.0 TT = JDT 2454840.5  

T 2008 Dec. 30.16191 TT                                 Nakano

q   2.9589945            (2000.0)            P               Q

z  +0.0017538      Peri.  104.48750     -0.17185986     -0.97484050

 +/-0.0000414      Node     9.30673     -0.79515436     +0.05220796

e   0.9948104      Incl.  118.62650     +0.58154426     -0.21670332

From 423 observations 2008 Aug. 18-Oct. 2, mean residual 0".42.

   (1/a)org.= +0.001829, (1/a)fut.= +0.001894 (+/-0.000041), Q= 5.



NAKANO

         **** Don't distribute anyone except personal use only ****

                (C) Copyright 2008 OAA/ComputingSection

write mail from CFAD0::NAKANO on 2008-10-05 06:57:03(JST).



    C/2008 Q1 (Maticic)

T 2008 Dec. 29.37971 TT                                 Nakano

q   2.9630655            (2000.0)            P               Q

                   Peri.  104.30148     -0.16842297     -0.97537363

                   Node     9.33716     -0.79542914     +0.04915771

e   1.0            Incl.  118.62917     +0.58217368     -0.21501117

From 217 observations 2008 Aug. 18-Sept. 7.



NAKANO

         **** Don't distribute anyone except personal use only ****

                (C) Copyright 2008 OAA/ComputingSection

write mail from CFAD0::NAKANO on 2008-09-07 23:13:57(JST).



◎C/2008 Q1の軌道と予報位置



  天文ガイド10月号から抜粋−−−

 チャーニーバー天文台で60-cm f/3.3望遠鏡で行なわれている彗星・小惑星サー

ベイで強烈な月光の中,2008年8月18日にはくちょう座とりゅう座の境界近くを

撮影した捜索フレーム上を動く,17等級の恒星状天体が捕らえられました.8月

19日に同望遠鏡で,この天体を観測したミクツは,約10"の強く集光したコマがあ

ることに気づきます.さらに,米国のホームズらによる81-cm f/4.0アストログラ

フを使用した8月20日の観測では,天体は,拡散状で,東に37".3に広がった幅広

い尾が観測されました.また,イタリーのゴナノらによる45-cm f/4.4反射での同

日の観測でも,約10"のコマと東南東に15"の広がった尾が見られています.同じ

くイタリーのフォリアらによる8月20日の40-cm反射による観測でも,天体には約

10"の拡散したコマが観測されるなど,天体は,発見直後に多くの観測者によって

追跡され,天体は,彗星であることが判明しました.なお,その確認段階の8月

20日夜に秦野の浅見敦夫氏と守山の井狩康一氏から,追跡観測が報告されました

が,形状についての報告はありませんでした.彗星は,17等級で観測されていま

す.

 次の軌道は,2008年8月18日から21日までに行なわれた69個の観測から決定し

たものです.軌道改良に使用された最終観測は井狩氏によるものです.

   T = 2008 Dec. 31.418 TT    ω = 104.954

                               Ω =   9.394    (2000.0)

   q =   2.95259 AU           i = 118.649

−−−



 その後の8月25日の追跡観測が芸西の関勉氏から報告されました.8月21日の

井狩氏の核光度は17.9等,25日の関氏のそれは18.0等でした.なお,David Asher

によると,Maticicは,マチティチュ,あるいは,マチティッチュと発音するらしい.なお,チャ

ーニーバは確かです(天文ガイド2000年12月号『新天体発見情報』を参照.



    C/2008 Q1 (Maticic)

T 2008 Dec. 29.88290 TT                                 Nakano

q   2.9605905            (2000.0)            P               Q

                   Peri.  104.45932     -0.17100714     -0.97490090

                   Node     9.34789     -0.79535754     +0.05119095

e   1.0            Incl.  118.63284     +0.58151779     -0.21667422

From 116 observations 2008 Aug. 18-25.

 

Date/        TT  R.A.(2000) Decl.     Delta   r     Daily motion  Mag.  Moon Age

              h    h  m       。  ,                      ,  / PA 。  m1      。

2008 Aug. 25 12  18 41.77  +49 11.4   2.821  3.215    33.1 / 240  17.3  101  .33

          26 12  18 38.87  +48 54.6   2.824  3.212    32.9 / 239  17.3  104  .23

          27 12  18 36.04  +48 37.4   2.828  3.208    32.7 / 238  17.3  106  .14

          28 12  18 33.27  +48 19.8   2.831  3.204    32.4 / 237  17.3  107  .07

          29 12  18 30.57  +48 01.9   2.835  3.200    32.2 / 236  17.3  106  .02

          30 12  18 27.94  +47 43.6   2.840  3.197    31.9 / 235  17.3  104  .00

          31 12  18 25.38  +47 25.0   2.844  3.193    31.7 / 234  17.3  101  .01

     Sept. 1 12  18 22.89  +47 06.1   2.849  3.189    31.4 / 233  17.3   97  .03

           2 12  18 20.46  +46 46.9   2.854  3.186    31.1 / 232  17.3   93  .08

           3 12  18 18.10  +46 27.5   2.860  3.182    30.8 / 231  17.3   89  .14

           4 12  18 15.81  +46 07.8   2.865  3.178    30.5 / 230  17.3   85  .22

           5 12  18 13.59  +45 48.0   2.871  3.175    30.2 / 229  17.3   81  .31

           6 12  18 11.43  +45 28.0   2.877  3.171    29.9 / 228  17.3   77  .40

           7 12  18 09.33  +45 07.8   2.883  3.168    29.6 / 227  17.3   75  .49

           8 12  18 07.30  +44 47.5   2.890  3.164    29.3 / 226  17.3   73  .59

           9 12  18 05.33  +44 27.1   2.897  3.161    29.0 / 225  17.3   71  .68

          10 12  18 03.43  +44 06.6   2.904  3.157    28.7 / 224  17.3   71  .76

          11 12  18 01.59  +43 46.0   2.911  3.154    28.3 / 223  17.3   72  .84

          12 12  17 59.80  +43 25.3   2.918  3.151    28.0 / 222  17.3   74  .91

          13 12  17 58.08  +43 04.6   2.926  3.147    27.7 / 222  17.3   77  .96

          14 12  17 56.41  +42 43.8   2.934  3.144    27.3 / 221  17.3   81  .99

          15 12  17 54.80  +42 23.1   2.941  3.141    27.0 / 220  17.3   86 1.00

          16 12  17 53.25  +42 02.3   2.950  3.137    26.7 / 219  17.3   91  .98

          17 12  17 51.74  +41 41.6   2.958  3.134    26.3 / 218  17.3   96  .94

          18 12  17 50.30  +41 20.9   2.966  3.131    26.0 / 217  17.3  101  .88

          19 12  17 48.90  +41 00.2   2.975  3.128    25.7 / 217  17.3  106  .79

          20 12  17 47.56  +40 39.5   2.983  3.125    25.3 / 216  17.3  109  .69

          21 12  17 46.27  +40 19.0   2.992  3.121    25.0 / 215  17.3  112  .58

          22 12  17 45.02  +39 58.5   3.001  3.118    24.6 / 214  17.3  113  .47

          23 12  17 43.82  +39 38.1   3.010  3.115    24.3 / 213  17.3  112  .36

          24 12  17 42.67  +39 17.7   3.019  3.112    24.0 / 213  17.3  110  .25

          25 12  17 41.57  +38 57.5   3.028  3.109    23.6 / 212  17.3  106  .16

          26 12  17 40.51  +38 37.4   3.038  3.106    23.3 / 211  17.3  102  .09

          27 12  17 39.49  +38 17.5   3.047  3.103    22.9 / 210  17.3   96  .04

          28 12  17 38.51  +37 57.6   3.057  3.100    22.6 / 209  17.3   91  .01

          29 12  17 37.58  +37 37.9   3.066  3.097    22.3 / 209  17.3   85  .00

          30 12  17 36.69  +37 18.4   3.076  3.094    21.9 / 208  17.3   80  .02

     Oct.  1 12  17 35.83  +36 59.0   3.085  3.092    21.6 / 207  17.3   75  .05

NAKANO

         **** Don't distribute anyone except personal use only ****

                (C) Copyright 2008 OAA/ComputingSection

write mail from CFAD0::NAKANO on 2008-08-31 06:23:58(JST).

 

◎C/2008 Q1の軌道と予報位置です



 この彗星については,その確認段階の8月20日夜に秦野の浅見敦夫氏と守山の

井狩康一氏から,追跡観測が報告されましたが,形状についての報告はありませ

んでした.井狩氏は,翌21日の観測を報告しています.なお,彗星は,17等級で

観測されています.



    C/2008 Q1 (Maticic)

T 2008 Dec. 31.41774 TT                                 Nakano

q   2.9525894            (2000.0)            P               Q

                   Peri.  104.95401     -0.17897206     -0.97337012

                   Node     9.39449     -0.79518891     +0.05737489

e   1.0            Incl.  118.64946     +0.57934756     -0.22194307

From 69 observations 2008 Aug. 18-Aug. 21.

                            

 

Date/        TT  R.A.(2000) Decl.     Delta   r     Daily motion  Mag.  Moon Age

              h    h  m       。  ,                      ,  / PA 。  m1      。

2008 Aug. 20 12  18 57.26  +50 28.4   2.810  3.234    34.0 / 245  17.3   80  .86

          21 12  18 54.04  +50 14.0   2.811  3.230    33.9 / 244  17.3   84  .77

          22 12  18 50.88  +49 59.1   2.813  3.226    33.7 / 243  17.3   89  .67

          23 12  18 47.78  +49 43.7   2.815  3.222    33.5 / 242  17.3   93  .56

          24 12  18 44.74  +49 27.8   2.818  3.219    33.3 / 241  17.3   98  .44

          25 12  18 41.77  +49 11.4   2.820  3.215    33.1 / 240  17.3  101  .33

          26 12  18 38.87  +48 54.6   2.823  3.211    32.9 / 239  17.3  104  .23

          27 12  18 36.03  +48 37.4   2.827  3.207    32.7 / 238  17.3  106  .14

          28 12  18 33.26  +48 19.8   2.830  3.203    32.4 / 237  17.3  107  .07

          29 12  18 30.56  +48 01.8   2.834  3.199    32.2 / 236  17.3  106  .02

          30 12  18 27.93  +47 43.5   2.839  3.196    31.9 / 235  17.3  104  .00

          31 12  18 25.37  +47 24.9   2.843  3.192    31.7 / 234  17.3  101  .01

     Sept. 1 12  18 22.88  +47 06.0   2.848  3.188    31.4 / 233  17.3   97  .03

           2 12  18 20.45  +46 46.8   2.853  3.184    31.1 / 232  17.3   93  .08

           3 12  18 18.09  +46 27.4   2.858  3.181    30.8 / 231  17.3   89  .14

           4 12  18 15.80  +46 07.7   2.864  3.177    30.5 / 230  17.3   85  .22

           5 12  18 13.57  +45 47.9   2.870  3.173    30.2 / 229  17.3   81  .31

           6 12  18 11.41  +45 27.9   2.876  3.170    29.9 / 228  17.3   77  .40

           7 12  18 09.31  +45 07.7   2.882  3.166    29.6 / 227  17.3   75  .49

